Weather History for Bentonville, AR

Change the Weather History Date:

Monday, October 14, 2013

  Actual Average Record
Temperature  
Mean Temperature 62 °F -  
Max Temperature 66 °F 72 °F 89 °F (1963)
Min Temperature 59 °F 46 °F 31 °F (1982)
Degree Days  
Heating Degree Days 2    
Growing Degree Days 12 (Base 50)    
Moisture  
Dew Point 52 °F    
Average Humidity 69    
Maximum Humidity 88    
Minimum Humidity 55    
Precipitation  
Precipitation 0.20 in - - ()
Sea Level Pressure  
Sea Level Pressure 30.12 in    
Wind  
Wind Speed 9 mph (SE)    
Max Wind Speed 16 mph    
Max Gust Speed 22 mph    
Visibility 10 miles    
Events      
Averages and records for this station are not official NWS values.
T = Trace of Precipitation, MM = Missing Value Source: NWS Daily Summary

Daily Weather History Graph

Daily Weather History Graph

Search for Another Location

Airport:

Trip Planner

Search our weather history database for the weather conditions in past years. The results will help you decide how hot, cold, wet, or windy it might be!

Date:

Astronomy

Oct. 14, 2013 Rise Set
Actual Time 7:23 AM CDT 6:41 PM CDT
Civil Twilight 6:57 AM CDT 7:07 PM CDT
Nautical Twilight 6:27 AM CDT 7:37 PM CDT
Astronomical Twilight 5:57 AM CDT 8:07 PM CDT
Moon 4:05 PM CDT (10/14) 2:48 AM CDT (10/14)
Length of Visible Light 12h 10m
Length of Day
11h 18m
Waxing Gibbous, 79% of the Moon is Illuminated
Oct 14
Waxing Gibbous
Oct 18
Full
Oct 26
Last Quarter
Nov 3
New
Nov 9
First Quarter

Hourly Weather History & Observations

Time (CDT) Temp. Dew Point Humidity Pressure Visibility Wind Dir Wind Speed Gust Speed Precip Events Conditions
12:15 AM 60.8 °F 50.0 °F 68% 30.26 in 10.0 mi East 6.9 mph - N/A   Clear
12:35 AM 60.8 °F 50.0 °F 68% 30.26 in 10.0 mi East 5.8 mph - N/A   Clear
12:55 AM 60.8 °F 50.0 °F 68% 30.24 in 10.0 mi East 6.9 mph - N/A   Clear
1:15 AM 60.8 °F 48.2 °F 63% 30.24 in 10.0 mi East 8.1 mph - N/A   Clear
1:35 AM 60.8 °F 48.2 °F 63% 30.24 in 10.0 mi East 8.1 mph - N/A   Clear
1:55 AM 60.8 °F 48.2 °F 63% 30.23 in 10.0 mi East 8.1 mph - N/A   Clear
2:15 AM 60.8 °F 48.2 °F 63% 30.23 in 10.0 mi East 8.1 mph - N/A   Clear
2:35 AM 60.8 °F 46.4 °F 59% 30.22 in 10.0 mi East 6.9 mph - N/A   Clear
2:55 AM 60.8 °F 46.4 °F 59% 30.22 in 10.0 mi ESE 9.2 mph - N/A   Clear
3:15 AM 60.8 °F 46.4 °F 59% 30.21 in 10.0 mi ESE 8.1 mph - N/A   Clear
3:35 AM 60.8 °F 44.6 °F 55% 30.21 in 10.0 mi ESE 9.2 mph - N/A   Clear
3:55 AM 60.8 °F 44.6 °F 55% 30.21 in 10.0 mi ESE 9.2 mph - N/A   Clear
4:15 AM 59.0 °F 44.6 °F 59% 30.21 in 10.0 mi ESE 9.2 mph - N/A   Clear
4:35 AM 59.0 °F 44.6 °F 59% 30.20 in 10.0 mi ESE 9.2 mph - N/A   Clear
4:55 AM 59.0 °F 44.6 °F 59% 30.20 in 10.0 mi ESE 6.9 mph - N/A   Clear
5:15 AM 59.0 °F 44.6 °F 59% 30.20 in 10.0 mi ESE 9.2 mph - N/A   Clear
5:35 AM 59.0 °F 44.6 °F 59% 30.19 in 10.0 mi ESE 6.9 mph - N/A   Clear
5:55 AM 59.0 °F 44.6 °F 59% 30.19 in 10.0 mi East 8.1 mph - N/A   Clear
6:15 AM 59.0 °F 42.8 °F 55% 30.19 in 10.0 mi ESE 8.1 mph - N/A   Clear
6:35 AM 59.0 °F 42.8 °F 55% 30.18 in 10.0 mi ESE 8.1 mph - N/A   Clear
6:55 AM 59.0 °F 42.8 °F 55% 30.18 in 10.0 mi ESE 10.4 mph - N/A   Clear
7:15 AM 59.0 °F 42.8 °F 55% 30.18 in 10.0 mi ESE 9.2 mph - N/A   Clear
7:35 AM 59.0 °F 42.8 °F 55% 30.18 in 10.0 mi ESE 10.4 mph - N/A   Clear
7:55 AM 59.0 °F 42.8 °F 55% 30.19 in 10.0 mi ESE 12.7 mph - N/A   Clear
8:15 AM 59.0 °F 44.6 °F 59% 30.19 in 10.0 mi ESE 10.4 mph - N/A   Clear
8:35 AM 59.0 °F 44.6 °F 59% 30.20 in 10.0 mi ESE 8.1 mph - N/A   Clear
8:55 AM 59.0 °F 44.6 °F 59% 30.20 in 10.0 mi ESE 9.2 mph - N/A   Clear
9:15 AM 60.8 °F 44.6 °F 55% 30.19 in 10.0 mi ESE 11.5 mph - N/A   Clear
9:35 AM 60.8 °F 44.6 °F 55% 30.18 in 10.0 mi ESE 10.4 mph - N/A   Clear
9:55 AM 60.8 °F 46.4 °F 59% 30.19 in 10.0 mi ESE 8.1 mph - N/A   Partly Cloudy
10:15 AM 60.8 °F 46.4 °F 59% 30.18 in 10.0 mi ESE 8.1 mph - N/A   Scattered Clouds
10:35 AM 60.8 °F 48.2 °F 63% 30.18 in 10.0 mi ESE 6.9 mph - N/A   Partly Cloudy
10:55 AM 62.6 °F 48.2 °F 59% 30.18 in 10.0 mi SE 6.9 mph - N/A   Partly Cloudy
11:15 AM 62.6 °F 51.8 °F 68% 30.17 in 10.0 mi SE 12.7 mph - N/A   Mostly Cloudy
11:35 AM 64.4 °F 51.8 °F 64% 30.16 in 10.0 mi SE 9.2 mph - N/A   Scattered Clouds
11:55 AM 64.4 °F 51.8 °F 64% 30.15 in 10.0 mi SE 9.2 mph - N/A   Mostly Cloudy
12:15 PM 64.4 °F 53.6 °F 68% 30.14 in 10.0 mi ESE 9.2 mph - N/A   Mostly Cloudy
12:35 PM 64.4 °F 53.6 °F 68% 30.13 in 10.0 mi SE 8.1 mph - N/A   Scattered Clouds
12:55 PM 64.4 °F 53.6 °F 68% 30.12 in 10.0 mi SE 6.9 mph - N/A   Scattered Clouds
1:15 PM 66.2 °F 55.4 °F 68% 30.11 in 10.0 mi SE 8.1 mph - N/A   Clear
1:35 PM 66.2 °F 55.4 °F 68% 30.09 in 10.0 mi SE 9.2 mph - N/A   Partly Cloudy
1:55 PM 66.2 °F 57.2 °F 73% 30.08 in 10.0 mi SE 9.2 mph - N/A   Clear
2:15 PM 66.2 °F 59.0 °F 78% 30.07 in 10.0 mi SE 9.2 mph - N/A   Partly Cloudy
2:35 PM 66.2 °F 59.0 °F 78% 30.06 in 10.0 mi SE 6.9 mph - N/A   Clear
2:55 PM 66.2 °F 60.8 °F 83% 30.05 in 10.0 mi SE 9.2 mph - N/A   Clear
3:15 PM 66.2 °F 59.0 °F 78% 30.04 in 10.0 mi SE 10.4 mph - N/A   Clear
3:35 PM 66.2 °F 59.0 °F 78% 30.04 in 10.0 mi SSE 11.5 mph - N/A   Partly Cloudy
3:55 PM 66.2 °F 59.0 °F 78% 30.03 in 8.0 mi SSE 8.1 mph - 0.01 in   Mostly Cloudy
4:15 PM 64.4 °F 59.0 °F 83% 30.03 in 8.0 mi SSE 9.2 mph - 0.01 in   Overcast
4:35 PM 64.4 °F 60.8 °F 88% 30.02 in 7.0 mi SE 8.1 mph - 0.02 in   Mostly Cloudy
4:55 PM 64.4 °F 59.0 °F 83% 30.02 in 10.0 mi SSE 10.4 mph - 0.03 in   Scattered Clouds
5:15 PM 64.4 °F 57.2 °F 77% 30.02 in 10.0 mi SE 9.2 mph - 0.01 in   Mostly Cloudy
5:35 PM 64.4 °F 57.2 °F 77% 30.02 in 10.0 mi SE 11.5 mph 17.3 mph 0.02 in   Mostly Cloudy
5:55 PM 62.6 °F 57.2 °F 82% 30.02 in 10.0 mi SE 8.1 mph - 0.03 in   Mostly Cloudy
6:15 PM 62.6 °F 57.2 °F 82% 30.01 in 10.0 mi SE 9.2 mph - 0.01 in   Mostly Cloudy
6:35 PM 62.6 °F 57.2 °F 82% 30.02 in 10.0 mi SE 8.1 mph - 0.02 in   Mostly Cloudy
6:55 PM 62.6 °F 57.2 °F 82% 30.03 in 10.0 mi South 9.2 mph - 0.03 in   Overcast
7:15 PM 62.6 °F 57.2 °F 82% 30.02 in 9.0 mi SSE 12.7 mph 16.1 mph 0.04 in   Overcast
7:35 PM 62.6 °F 57.2 °F 82% 30.00 in 10.0 mi SSE 12.7 mph 21.9 mph 0.07 in   Mostly Cloudy
7:55 PM 62.6 °F 57.2 °F 82% 30.02 in 10.0 mi SSE 6.9 mph - 0.08 in   Scattered Clouds
8:15 PM 62.6 °F 57.2 °F 82% 30.02 in 9.0 mi SSE 6.9 mph - N/A   Overcast
8:35 PM 62.6 °F 57.2 °F 82% 30.02 in 10.0 mi SSE 10.4 mph - 0.01 in   Mostly Cloudy
8:55 PM 62.6 °F 57.2 °F 82% 30.02 in 10.0 mi SSE 13.8 mph 17.3 mph 0.01 in   Overcast
9:15 PM 62.6 °F 55.4 °F 77% 30.02 in 10.0 mi SSE 10.4 mph - N/A   Overcast
9:35 PM 62.6 °F 55.4 °F 77% 30.01 in 10.0 mi SSE 10.4 mph - N/A   Overcast
9:55 PM 62.6 °F 57.2 °F 82% 30.02 in 10.0 mi SSE 10.4 mph 16.1 mph N/A   Overcast
10:15 PM 62.6 °F 57.2 °F 82% 30.02 in 10.0 mi SSE 11.5 mph 16.1 mph N/A   Overcast
10:35 PM 62.6 °F 55.4 °F 77% 30.01 in 10.0 mi SSE 15.0 mph 19.6 mph N/A   Overcast
10:55 PM 60.8 °F 55.4 °F 82% 30.01 in 10.0 mi SSE 16.1 mph 19.6 mph N/A   Overcast
11:15 PM 60.8 °F 55.4 °F 82% 30.00 in 10.0 mi SSE 11.5 mph 20.7 mph 0.01 in   Overcast
11:35 PM 60.8 °F 55.4 °F 82% 29.99 in 10.0 mi SSE 10.4 mph - 0.01 in   Overcast
11:55 PM 60.8 °F 55.4 °F 82% 29.98 in 10.0 mi SSE 11.5 mph 16.1 mph 0.01 in   Overcast